Mazatlan Airport, Mexico

7:44 AM MDT on July 23, 2017 (GMT -0600)
Gen Rafael Buelna International

Weather History for MMMZ - August, 2013

Change the Weather History Date:

Monday, August 19, 2013

  Actual Average Record
Temperature  
Mean Temperature 82 °F -  
Max Temperature 90 °F 88 °F 93 °F (2002)
Min Temperature 73 °F 74 °F 71 °F (2006)
Cooling Degree Days 16    
Growing Degree Days 32 (Base 50)    
Moisture  
Dew Point 69 °F    
Average Humidity 62    
Maximum Humidity 94    
Minimum Humidity 49    
Precipitation  
Precipitation 0.00 in - - ()
Sea Level Pressure  
Sea Level Pressure 29.84 in    
Wind  
Wind Speed 7 mph ()    
Max Wind Speed 29 mph    
Max Gust Speed 69 mph    
Visibility 11.2 miles    
Events Rain , Thunderstorm    
Averages and records for this station are not official NWS values.
T = Trace of Precipitation, MM = Missing Value Source: Averaged Metar Reports

Daily Weather History Graph

Daily Weather History Graph

Search for Another Location

Airport or City:

Trip Planner

Search our weather history database for the weather conditions in past years. The results will help you decide how hot, cold, wet, or windy it might be!

Date:

Astronomy

Aug. 19, 2013 Rise Set
Actual Time 6:42 AM MDT 7:33 PM MDT
Civil Twilight 6:19 AM MDT 7:57 PM MDT
Nautical Twilight 5:52 AM MDT 8:24 PM MDT
Astronomical Twilight 5:24 AM MDT 8:52 PM MDT
Moon 6:27 PM MDT (8/19) 5:08 AM MDT (8/19)
Length of Visible Light 13h 37m
Length of Day
12h 50m
Waxing Gibbous, 97% of the Moon is Illuminated
Aug 19
Waxing Gibbous
Aug 20
Full
Aug 28
Last Quarter
Sep 5
New
Sep 12
First Quarter

Hourly Weather History & Observations

Time (MDT) Temp. Heat Index Dew Point Humidity Pressure Visibility Wind Dir Wind Speed Gust Speed Precip Events Conditions
12:51 AM 80.6 °F 83.9 °F 69.8 °F 70% 29.87 in 10.0 mi SSE 5.8 mph - N/A   Mostly Cloudy
1:40 AM 80.6 °F 83.9 °F 69.8 °F 70% 29.86 in 10.0 mi South 4.6 mph - N/A   Mostly Cloudy
2:40 AM 80.6 °F 83.9 °F 69.8 °F 70% 29.86 in 10.0 mi South 8.1 mph - N/A   Mostly Cloudy
3:41 AM 80.6 °F 83.9 °F 69.8 °F 70% 29.85 in 10.0 mi NE 5.8 mph - N/A   Overcast
4:40 AM 80.6 °F 83.9 °F 69.8 °F 70% 29.84 in 10.0 mi ENE 6.9 mph - N/A   Overcast
5:43 AM 80.6 °F 83.9 °F 69.8 °F 70% 29.83 in 10.0 mi ESE 5.8 mph - N/A   Mostly Cloudy
6:46 AM 78.8 °F - 68.0 °F 69% 29.84 in 10.0 mi NNE 6.9 mph - N/A Thunderstorm Thunderstorm
7:42 AM 80.6 °F 83.9 °F 69.8 °F 70% 29.85 in 10.0 mi WNW 6.9 mph - N/A   Scattered Clouds
8:42 AM 82.4 °F 85.4 °F 68.0 °F 62% 29.85 in 10.0 mi WNW 4.6 mph - N/A   Scattered Clouds
9:54 AM 86.0 °F 89.4 °F 68.0 °F 55% 29.85 in 10.0 mi SW 8.1 mph - N/A   Partly Cloudy
10:42 AM 87.8 °F 91.4 °F 68.0 °F 52% 29.84 in 12.0 mi SSW 6.9 mph - N/A   Scattered Clouds
11:40 AM 89.6 °F 93.4 °F 68.0 °F 49% 30.14 in 12.0 mi SW 10.4 mph - N/A   Partly Cloudy
12:40 PM 87.8 °F 92.6 °F 69.8 °F 55% 29.84 in 14.0 mi West 11.5 mph - N/A   Partly Cloudy
1:41 PM 89.6 °F 94.7 °F 69.8 °F 52% 29.81 in 15.0 mi SW 11.5 mph - N/A   Partly Cloudy
2:47 PM 89.6 °F 94.7 °F 69.8 °F 52% 29.79 in 15.0 mi SSW 10.4 mph - N/A   Scattered Clouds
3:41 PM 89.6 °F 93.4 °F 68.0 °F 49% 29.77 in 15.0 mi SSW 11.5 mph - N/A   Partly Cloudy
4:46 PM 87.8 °F 91.4 °F 68.0 °F 52% 29.75 in 15.0 mi WSW 15.0 mph - N/A   Scattered Clouds
5:44 PM 87.8 °F 90.4 °F 66.2 °F 49% 29.86 in 15.0 mi WSW 9.2 mph - N/A   Mostly Cloudy
6:00 PM 90 °F - 78 °F 60% 29.77 in - West 6.7 mph - -  
6:41 PM 84.2 °F 86.6 °F 66.2 °F 55% 29.74 in 15.0 mi WSW 9.2 mph - N/A   Mostly Cloudy
7:41 PM 84.2 °F 87.3 °F 68.0 °F 58% 29.74 in 13.0 mi SW 8.1 mph - N/A   Scattered Clouds
8:24 PM 73.4 °F - 71.6 °F 94% 30.04 in 0.0 mi NNE 28.8 mph 69.0 mph N/A Rain Heavy Rain
8:41 PM 82.4 °F 85.4 °F 68.0 °F 62% 29.76 in 10.0 mi WSW 9.2 mph - N/A   Mostly Cloudy
9:52 PM 82.4 °F 85.4 °F 68.0 °F 62% 29.80 in 10.0 mi SSW 5.8 mph - N/A   Mostly Cloudy
10:42 PM 82.4 °F 86.3 °F 69.8 °F 66% 29.82 in 10.0 mi WNW 6.9 mph - N/A   Overcast
11:49 PM 82.4 °F 85.4 °F 68.0 °F 62% 29.83 in 10.0 mi WSW 6.9 mph - N/A   Overcast